Regional Weather Roundup
Issued by NWS

Home | Current Version | Previous Version | Graphics & Text | Print | Product List | Glossary On
Versions: 1 2 3 4 5 6 7 8 9 10 11 12 13 14 15 16 17 18 19 20 21 22 23 24 25 26 27 28 29 30 31 32 33 34 35 36 37 38 39 40 41 42 43 44 45 46 47 48 49 50
000
ASUS43 KFSD 201610
RWRSD

WEATHER ROUNDUP FOR SOUTH DAKOTA
NATIONAL WEATHER SERVICE SIOUX FALLS SD
1000 AM CST THU NOV 20 2014

NOTE: "FAIR" INDICATES FEW OR NO CLOUDS BELOW 12,000 FEET WITH NO
SIGNIFICANT WEATHER AND/OR OBSTRUCTIONS TO VISIBILITY.


SDZ001>005-009-010-012>017-201700-
NORTHWEST AND NORTH CENTRAL SOUTH DAKOTA

CITY           SKY/WX    TMP DP  RH WIND       PRES   REMARKS
BUFFALO          N/A     16  12  84 S10       29.92R WCI   4
FAITH            N/A     16  12  84 SE8       30.04F WCI   5
MOBRIDGE       CLOUDY    17  11  77 CALM      30.11R
$$

SDZ012>016-024>037-041>051-057-063-072>074-201700-
SOUTHWEST AND SOUTH CENTRAL SOUTH DAKOTA

CITY           SKY/WX    TMP DP  RH WIND       PRES   REMARKS
RAPID CTY ARPT MOSUNNY   16  13  88 SE3       29.99F
PIERRE         CLOUDY    18  13  80 CALM      30.14R
CUSTER         MOSUNNY   33  12  41 W5        29.93R WCI  29
ELLSWORTH AFB  SUNNY     21  20  93 S5        29.97F WCI  15
PHILIP         MOSUNNY   19  12  74 SE10      30.09R WCI   7
PINE RIDGE     MOSUNNY   13  11  92 CALM      30.02S
SPEARFISH      FAIR      23  16  74 SE3       29.94S
WINNER         CLOUDY    20  12  71 SE5       30.14R WCI  13
$$

SDZ004>011-016>023-039-040-201700-
NORTHEAST SOUTH DAKOTA

CITY           SKY/WX    TMP DP  RH WIND       PRES   REMARKS
ABERDEEN       SUNNY     10   3  73 NW7       30.18R WCI  -1
WATERTOWN      SUNNY      7   2  80 W6        30.12R WCI  -3
SISSETON         N/A     11   4  73 NW9       30.15R WCI  -2
$$

SDZ017-020-022-023-036>040-048>070-201700-
SOUTHEAST SOUTH DAKOTA

CITY           SKY/WX    TMP DP  RH WIND       PRES   REMARKS
SIOUX FALLS    MOSUNNY   13   6  74 NW6       30.18R WCI   4
HURON          SUNNY     13   8  81 NW3       30.19R
CHAMBERLAIN    CLOUDY    18  12  77 CALM      30.17R
MITCHELL       CLOUDY    17  11  77 NW5       30.21R WCI  10
YANKTON        CLOUDY    19  12  73 NW7       30.22R WCI  10
$$

ABBREVIATIONS USED IN REMARKS
   TC - TEMPERATURE IN CELSIUS
  WCI - WIND CHILL INDEX
   HX - HEAT INDEX
  VSB - VISIBILITY



USA.gov is the U.S. government's official web portal to all federal, state and local government web resources and services.